Regional Weather Roundup
Issued by NWS

Home | Current Version | Previous Version | Graphics & Text | Print | Product List | Glossary Off
Versions: 1 2 3 4 5 6 7 8 9 10 11 12 13 14 15 16 17 18 19 20 21 22 23 24 25 26 27 28 29 30 31 32 33 34 35 36 37 38 39 40 41 42 43 44 45 46 47 48 49 50

000
ASUS43 KTOP 231908
RWRKS

WEATHER ROUNDUP FOR KANSAS
NATIONAL WEATHER SERVICE GOODLAND KS
200 PM CDT TUE AUG 23 2016

NOTE:  "FAIR" INDICATES FEW OR NO CLOUDS BELOW 12,000 FEET WITH NO
SIGNIFICANT WEATHER AND/OR OBSTRUCTIONS TO VISIBILITY.

KSZ001>006-013>018-027>032-041>047-232000-
NORTHWEST KANSAS

CITY           SKY/WX    TMP DP  RH WIND       PRES   REMARKS
GOODLAND       SUNNY     91  49  23 N12       29.91S
HAYS           MOSUNNY   93  64  38 S20G33    29.82F HX  95
HILL CITY      SUNNY     91  61  36 SW14G23   29.83S
RUSSELL        SUNNY     92  68  45 S26G38    29.83F HX  96
$$

KSZ061>065-074>080-084>089-232000-
SOUTHWEST KANSAS

CITY           SKY/WX    TMP DP  RH WIND       PRES   REMARKS
DODGE CITY     MOSUNNY   94  58  29 SW18G33   29.89F
ELKHART          N/A     93  51  23 SW12        N/A
GARDEN CITY    SUNNY     91  53  27 SW15      29.88F
GREAT BEND     MOSUNNY   93  66  40 S25G36    29.85F HX  96
LIBERAL        SUNNY     95  55  26 SW22G28   29.92F
PRATT          SUNNY     87  67  49 S28       29.90F
$$

KSZ066>073-081>083-090>101-232000-
SOUTHEAST KANSAS

CITY           SKY/WX    TMP DP  RH WIND       PRES   REMARKS
CHANUTE        CLOUDY    81  73  76 S12       30.03S
COFFEYVILLE    LGT RAIN  83  73  72 S18G24    30.04F
HUTCHINSON     MOSUNNY   91  70  49 S28G38    29.90F HX  96
MEDICINE LODGE   N/A     90  69  50 S17G32    29.90F
NEWTON         CLOUDY    86  73  65 S23G33    29.94
PARSONS        CLOUDY    83  74  74 S15G22    30.05S
WICHITA INTL   MOSUNNY   88  72  58 S25G33    29.93F
WICHITA JABRA  MOSUNNY   85  73  67 S22G31    29.95F
WICHITA MCCONL MOSUNNY   85  72  65 S22G37    29.96S
WINFIELD       MOSUNNY   85  72  65 S21G31    30.00F
$$

KSZ007>012-019>026-033>040-048>060-102>105-232000-
NORTHEAST KANSAS

CITY           SKY/WX    TMP DP  RH WIND       PRES   REMARKS
CONCORDIA      MOSUNNY   90  71  53 S24G30    29.85F HX  96
EMPORIA        PTSUNNY   86  73  65 S22G38    29.97S
LAWRENCE       CLOUDY    84  74  71 S15G25    29.97F
MANHATTAN      MOSUNNY   89  74  60 S20G28    29.88F HX  98
MARYSVILLE     PTSUNNY   88  72  58 S17G26    29.88S
OLATHE IND     CLOUDY    82  73  74 S14G24    30.01S
OLATHE EXE     CLOUDY    80  72  76 S17G25    30.01F
SALINA         SUNNY     94  71  47 S22G38    29.86F HX 101
TOPEKA BILLARD LGT RAIN  86  73  65 S17G25    29.94F
TOPEKA FORBES  CLOUDY    88  74  63 S18G30    29.95S HX  96
$$




USA.gov is the U.S. government's official web portal to all federal, state and local government web resources and services.